Location: Unspecified
(43.4354°N, 0.0000°E)
Time: 15:57:23
(UTC+00:00)

Vanguard 2 Rocket - Pass Details

Date: 20 June 2019
Orbit: 553 x 3327 km, 32.9° (Epoch: 21 August)

Event Time Altitude Azimuth Distance (km) Brightness Sun altitude
Rises 01:36:37 0° 267° (W) 5,375 10.6 -19.7°
Reaches altitude 10° 01:39:43 10° 262° (W) 4,691 10.2 -19.4°
Maximum altitude 01:53:32 54° 191° (S) 3,383 9.3 -18.3°
Drops below altitude 10° 02:12:41 10° 122° (ESE) 6,280 11.1 -16.7°
Sets 02:17:40 0° 119° (ESE) 7,239 11.5 -16.2°
